Hourly Data Report for April 24, 2020

TORONTO CITY
ONTARIO
Current Station Operator: ECCC - MSC

43°40'00.000" N
79°24'00.000" W
112.50 m
6158355
71508
XTO

Download Data

Hourly Data (April 2020)
Hourly Data Report for April 24, 2020
TIME
LST
Temp Definition
°C
Dew Point Definition
°C
Rel Hum Definition
%
Precip. Amount Definition
mm

Wind Dir Definition
10's deg

Wind Spd Definition
km/h
Visibility Definition
km
Stn Press Definition
kPa
Hmdx Definition


Wind Chill Definition


Weather Definition


00:00 5.4 -8.9 35 0.0       99.63     LegendNANA
01:00 5.6 -8.5 36 0.0       99.60     LegendNANA
02:00 6.1 -9.1 33 0.0       99.54     LegendNANA
03:00 6.5 -11.3 27 0.0       99.49     LegendNANA
04:00 6.5 -12.7 24 0.0       99.50     LegendNANA
05:00 6.8 -12.8 23 0.0       99.52     LegendNANA
06:00 6.8 -12.7 23 0.0       99.52     LegendNANA
07:00 6.7 -11.9 25 0.0       99.57     LegendNANA
08:00 6.6 -10.6 28 0.0       99.59     LegendNANA
09:00 7.0 -9.4 30 0.0       99.64     LegendNANA
10:00 8.3 -11.0 24 0.0       99.67     LegendNANA
11:00 8.9 -10.6 24 0.0       99.72     LegendNANA
12:00 9.8 -9.8 24 0.0       99.73     LegendNANA
13:00 9.9 -9.6 24 0.0       99.71     LegendNANA
14:00 10.2 -11.2 21 0.0       99.73     LegendNANA
15:00 10.3 -10.4 22 0.0       99.77     LegendNANA
16:00 10.8 -9.3 23 0.2       99.77     LegendNANA
17:00 9.1 -9.3 26 0.2       99.81     LegendNANA
18:00 8.4 -8.2 30 0.0       99.85     LegendNANA
19:00 7.5 -7.1 34 0.2       99.93     LegendNANA
20:00 7.4 -6.5 37 0.0       100.04     LegendNANA
21:00 7.0 -5.8 40 0.0       100.11     LegendNANA
22:00 7.1 -5.9 39 0.0       100.11     LegendNANA
23:00 7.1 -6.0 39 0.0       100.12     LegendNANA

Notes on Data Quality.

Legend

  • E = Estimated
  • M = Missing
  • NA = Not Available*
  • [empty] = Indicates an unobserved value
Date modified: